Location: Irma
(52.9170°N, 111.2330°W)
Time: 03:34:22
(UTC-06:00)

Amateur Radio Satellites - All Passes

Search period start: 28 June 2016 03:04
Search period end: 29 June 2016 03:04
Location: Irma, 52.9170°N, 111.2330°W

Satellite Date Start Highest point End Downlink Frequencies (MHz)
Time Altitude Azimuth
AIST 1 28 Jun 03:05:29 03:06:34 11° 56° (NE) 03:07:39
POPSAT HIP 1 28 Jun 03:05:58 03:07:54 13° 307° (NW) 03:09:50 437.405
Cosmos 2491 28 Jun 03:16:34 03:24:48 43° 295° (WNW) 03:33:03 435.465 / 435.565
DUCHIFAT 1 28 Jun 03:22:06 03:22:54 10° 309° (NW) 03:23:43 145.980
O/OREOS (USA 219) 28 Jun 03:23:57 03:27:54 31° 107° (ESE) 03:31:52 437.305
PCSat 28 Jun 03:25:15 03:30:31 53° 120° (ESE) 03:35:48 145.827
AO-85 28 Jun 03:25:29 03:29:17 21° 4° (N) 03:32:53 145.980
MOZHAYETS 4 28 Jun 03:29:37 03:33:52 37° 65° (ENE) 03:38:10
Cosmos 2504 28 Jun 03:33:04 03:40:52 36° 278° (W) 03:48:29 435.465 / 435.565
Oscar 19 28 Jun 03:34:47 03:39:54 69° 290° (WNW) 03:45:00 437.125/150
AO-7 28 Jun 03:38:12 03:43:48 19° 84° (E) 03:49:20 29.400- 29.500
BEESAT 3 28 Jun 03:41:21 03:44:56 34° 122° (ESE) 03:48:32 437.485
KKS-1 28 Jun 03:43:52 03:48:11 54° 69° (ENE) 03:52:31 437.445
Gurwin Techsat 1B 28 Jun 03:46:22 03:51:44 75° 104° (ESE) 03:57:04 435.225
ITAMSAT 1 28 Jun 03:55:50 04:00:44 38° 97° (E) 04:05:36 435.822/435.867
SWISSCUBE 28 Jun 03:58:14 04:01:53 21° 270° (W) 04:05:33 437.505
GONETS M04 28 Jun 04:03:27 04:09:53 22° 48° (NE) 04:16:19
STARS 28 Jun 04:17:43 04:22:00 61° 70° (ENE) 04:26:20 437.465
BEESAT 2 28 Jun 04:17:44 04:21:31 43° 125° (SE) 04:25:20 435.950
JAS-2 28 Jun 04:22:45 04:26:58 20° 311° (NW) 04:30:54 435.910
Cosmos 2499 28 Jun 04:24:17 04:30:40 21° 46° (NE) 04:36:54 435.465 / 435.565
BEESAT 28 Jun 04:24:58 04:27:34 14° 274° (W) 04:30:10 436.000
ITUPSAT 1 28 Jun 04:25:33 04:28:11 15° 274° (W) 04:30:51 437.325
AIST 1 28 Jun 04:40:49 04:45:05 68° 78° (ENE) 04:49:19
CUBESAT XI-V 28 Jun 04:55:34 04:59:50 36° 65° (ENE) 05:04:07 437.345
HORYU 2 28 Jun 04:56:37 04:57:37 11° 84° (E) 04:58:37 437.375
O/OREOS (USA 219) 28 Jun 05:02:55 05:07:13 43° 308° (NW) 05:11:30 437.305
AO-85 28 Jun 05:06:37 05:11:06 34° 29° (NNE) 05:15:12 145.980
MOZHAYETS 4 28 Jun 05:06:50 05:11:05 35° 264° (W) 05:15:22
PCSat 28 Jun 05:08:58 05:14:07 41° 322° (NW) 05:19:17 145.827
Oscar 19 28 Jun 05:15:29 05:18:23 15° 310° (NW) 05:21:17 437.125/150
BEESAT 3 28 Jun 05:18:48 05:22:34 43° 323° (NW) 05:26:23 437.485
Cosmos 2491 28 Jun 05:20:26 05:24:42 14° 324° (NW) 05:28:58 435.465 / 435.565
KKS-1 28 Jun 05:21:36 05:25:05 22° 268° (W) 05:28:34 437.445
Gurwin Techsat 1B 28 Jun 05:27:04 05:31:13 24° 305° (NW) 05:35:21 435.225
AO-7 28 Jun 05:29:44 05:38:09 71° 107° (ESE) 05:46:31 29.400- 29.500
ITAMSAT 1 28 Jun 05:35:22 05:40:16 41° 297° (WNW) 05:45:08 435.822/435.867
STARS 28 Jun 05:55:36 05:58:46 19° 269° (W) 06:01:58 437.465
BEESAT 2 28 Jun 05:55:44 05:59:27 36° 325° (NW) 06:03:12 435.950
GONETS M04 28 Jun 05:59:53 06:08:37 70° 75° (ENE) 06:17:21
STRAND 1 28 Jun 06:03:53 06:07:38 21° 54° (NE) 06:11:24 437.568
Cosmos 2499 28 Jun 06:17:03 06:25:55 64° 73° (ENE) 06:34:20 435.465 / 435.565
AIST 1 28 Jun 06:19:37 06:22:10 16° 277° (W) 06:24:42
HORYU 2 28 Jun 06:30:30 06:35:01 72° 104° (ESE) 06:39:31 437.375
AIST 2 28 Jun 06:32:49 06:36:52 60° 128° (SE) 06:40:59 435.215
CUBESAT XI-V 28 Jun 06:32:52 06:37:13 37° 264° (W) 06:41:36 437.345
CUTE-I 28 Jun 06:32:55 06:36:24 17° 87° (E) 06:39:51 437.470
BRITE-PL 28 Jun 06:39:00 06:42:05 20° 90° (E) 06:45:08 437.365/2234.400
O/OREOS (USA 219) 28 Jun 06:45:59 06:47:50 12° 331° (NNW) 06:49:41 437.305
AO-85 28 Jun 06:47:14 06:51:55 64° 232° (SW) 06:56:10 145.980
PCSat 28 Jun 06:54:57 06:58:56 20° 347° (NNW) 07:02:55 145.827
BEESAT 3 28 Jun 06:58:30 07:01:11 17° 345° (NNW) 07:03:53 437.485
NOAA 15 28 Jun 07:02:03 07:06:53 35° 96° (E) 07:11:40 137.62
GOMX 1 28 Jun 07:14:55 07:18:08 21° 92° (E) 07:21:25 467.674
ITAMSAT 1 28 Jun 07:18:08 07:18:28 10° 318° (NW) 07:18:47 435.822/435.867
AO-7 28 Jun 07:22:56 07:30:31 40° 310° (NW) 07:38:05 29.400- 29.500
NOAA 18 28 Jun 07:27:54 07:33:14 45° 99° (E) 07:38:33 137.9125
BEESAT 2 28 Jun 07:35:42 07:38:19 16° 348° (NNW) 07:40:57 435.950
Cubesat XI-IV 28 Jun 07:37:17 07:42:33 50° 99° (E) 07:47:47 437.490
STRAND 1 28 Jun 07:41:05 07:46:15 84° 254° (WSW) 07:51:28 437.568
CUSAT 1 28 Jun 07:45:40 07:52:39 43° 94° (E) 07:58:29 437.405
LilacSat-2 28 Jun 07:57:00 08:00:54 82° 104° (ESE) 08:04:48 437.200
GONETS M04 28 Jun 07:57:20 08:04:53 35° 278° (W) 08:12:27
DANDE 28 Jun 08:03:36 08:10:56 36° 88° (E) 08:17:35 436.750
HORYU 2 28 Jun 08:07:53 08:11:08 20° 303° (WNW) 08:14:23 437.375
Cosmos 2499 28 Jun 08:10:42 08:18:40 39° 276° (W) 08:26:18 435.465 / 435.565
PRISM 28 Jun 08:10:52 08:14:42 37° 66° (ENE) 08:18:31 437.425
CUTE-I 28 Jun 08:11:47 08:17:14 89° 107° (ESE) 08:22:37 437.470
AIST 2 28 Jun 08:11:54 08:15:38 31° 329° (NNW) 08:19:23 435.215
BRITE-PL 28 Jun 08:16:52 08:20:58 52° 290° (WNW) 08:25:00 437.365/2234.400
DOVE 4 28 Jun 08:16:53 08:20:55 40° 98° (E) 08:25:06 437.250
AO-85 28 Jun 08:30:17 08:31:19 11° 254° (WSW) 08:32:20 145.980
BEESAT 3 28 Jun 08:37:48 08:40:17 16° 9° (N) 08:42:46 437.485
PCSat 28 Jun 08:40:17 08:44:18 20° 13° (NNE) 08:48:18 145.827
CANX-2 28 Jun 08:40:17 08:43:48 24° 92° (E) 08:47:16 2200.000
NOAA 15 28 Jun 08:41:48 08:46:47 44° 296° (WNW) 08:51:44 137.62
COMPASS 1 28 Jun 08:44:43 08:46:43 13° 86° (E) 08:48:41 437.405
TIGRISAT 28 Jun 08:50:53 08:51:54 11° 49° (NE) 08:52:54 435.000
GOMX 1 28 Jun 08:52:31 08:56:33 49° 290° (WNW) 09:00:40 467.674
UNISAT 6 28 Jun 08:55:03 08:56:48 12° 51° (NE) 08:58:33 437.425
CUTE 1.7 + AOD 2 28 Jun 09:00:09 09:04:01 31° 95° (E) 09:07:51 437.475
SEEDS 28 Jun 09:04:59 09:08:38 26° 93° (E) 09:12:13 437.485
NOAA 18 28 Jun 09:08:46 09:13:52 38° 299° (WNW) 09:18:57 137.9125
HO-68 28 Jun 09:12:07 09:19:02 46° 99° (E) 09:25:54 435.675
BEESAT 2 28 Jun 09:14:55 09:17:35 17° 13° (NNE) 09:20:15 435.950
CINEMA 3 28 Jun 09:15:15 09:19:36 49° 100° (E) 09:24:09 145.822/145.860
CUBEBUG 2 28 Jun 09:15:33 09:18:57 20° 90° (E) 09:22:24 437.445
AO-7 28 Jun 09:16:23 09:21:08 17° 335° (NNW) 09:25:54 29.400- 29.500
Cubesat XI-IV 28 Jun 09:17:41 09:22:29 33° 300° (WNW) 09:27:15 437.490
STRAND 1 28 Jun 09:23:20 09:26:15 15° 274° (W) 09:29:11 437.568
Cosmos 2491 28 Jun 09:25:38 09:29:45 14° 35° (NE) 09:33:51 435.465 / 435.565
CUSAT 1 28 Jun 09:27:29 09:34:44 50° 290° (WNW) 09:40:40 437.405
LilacSat-2 28 Jun 09:32:36 09:34:41 14° 303° (WNW) 09:36:48 437.200
ANTELSAT 28 Jun 09:32:45 09:36:11 23° 59° (ENE) 09:39:41 437.575/2403.000
AUBIESAT-1 28 Jun 09:33:47 09:34:22 10° 94° (E) 09:34:58 437.475
ZACube-1 28 Jun 09:43:40 09:46:51 18° 89° (E) 09:50:03 437.345
AAUSAT CUBESAT 2 28 Jun 09:45:02 09:48:57 37° 97° (E) 09:52:50 437.432
ISS 28 Jun 09:45:03 09:46:50 14° 142° (SE) 09:48:38 145.825
DANDE 28 Jun 09:45:05 09:53:29 71° 286° (WNW) 10:00:52 436.750
PRISM 28 Jun 09:46:26 09:50:04 29° 264° (W) 09:53:44 437.425
AIST 2 28 Jun 09:52:35 09:55:17 17° 353° (N) 09:58:00 435.215
CUTE-I 28 Jun 09:52:45 09:56:39 21° 307° (NW) 10:00:31 437.470
Oscar 11 28 Jun 09:54:10 09:57:37 22° 91° (E) 10:01:03 145.826/435.025
DOVE 4 28 Jun 09:54:54 09:58:34 28° 296° (WNW) 10:02:20 437.250
FUNcube-1 28 Jun 10:01:05 10:04:49 24° 92° (E) 10:08:33 145.935
DELFI C3 28 Jun 10:01:11 10:02:51 12° 86° (E) 10:04:32 145.870
UWE-3 28 Jun 10:03:13 10:07:27 37° 96° (E) 10:11:46 435.000/436.395/437.385
M-CUBED/EXP-1 PRIME 28 Jun 10:10:33 10:13:50 27° 103° (ESE) 10:17:19 437.505
BEESAT 3 28 Jun 10:15:26 10:19:04 32° 32° (NNE) 10:22:40 437.485
CANX-2 28 Jun 10:15:44 10:19:54 47° 291° (WNW) 10:24:01 2200.000
COMPASS 1 28 Jun 10:18:40 10:22:55 86° 282° (WNW) 10:27:06 437.405
TIGRISAT 28 Jun 10:23:25 10:27:39 56° 70° (ENE) 10:32:01 435.000
PCSat 28 Jun 10:23:54 10:29:06 42° 38° (NE) 10:34:15 145.827
NOAA 15 28 Jun 10:24:07 10:25:21 11° 317° (NW) 10:26:35 137.62
UNISAT 6 28 Jun 10:28:22 10:32:40 66° 72° (ENE) 10:37:06 437.425
CUTE 1.7 + AOD 2 28 Jun 10:35:58 10:39:55 36° 294° (WNW) 10:43:49 437.475
SEEDS 28 Jun 10:40:28 10:44:29 41° 292° (WNW) 10:48:28 437.485
NANOSAT C BR1 28 Jun 10:46:08 10:49:23 22° 60° (ENE) 10:52:39 145.865
QB50P1 28 Jun 10:48:46 10:52:10 24° 61° (ENE) 10:55:34 145.935-145.965
CUBEBUG 2 28 Jun 10:51:27 10:55:58 64° 288° (WNW) 11:00:36 437.445
POPSAT HIP 1 28 Jun 10:51:54 10:55:20 25° 62° (ENE) 10:58:48 437.405
NOAA 18 28 Jun 10:52:28 10:53:07 10° 321° (NW) 10:53:46 137.9125
BEESAT 2 28 Jun 10:52:38 10:56:25 38° 35° (NE) 11:00:12 435.950
CINEMA 3 28 Jun 10:52:52 10:56:34 26° 298° (WNW) 11:00:23 145.822/145.860
HUMSAT D 28 Jun 10:59:18 11:02:52 24° 92° (E) 11:06:24 437.325/437.525
HO-68 28 Jun 10:59:58 11:06:52 50° 300° (WNW) 11:13:44 435.675
QB50P2 28 Jun 11:03:44 11:07:29 33° 65° (ENE) 11:11:18 145.880/145.840
AUBIESAT-1 28 Jun 11:05:35 11:09:24 79° 111° (ESE) 11:13:30 437.475
DUCHIFAT 1 28 Jun 11:06:19 11:09:59 30° 64° (ENE) 11:13:40 145.980
POLYITAN 1 28 Jun 11:06:20 11:10:07 34° 65° (ENE) 11:13:56 437.675
AO-7 28 Jun 11:08:01 11:10:37 12° 3° (N) 11:13:12 29.400- 29.500
ANTELSAT 28 Jun 11:08:20 11:12:35 55° 259° (W) 11:16:59 437.575/2403.000
JAS-2 28 Jun 11:10:33 11:16:08 25° 52° (NE) 11:21:18 435.910
CUSAT 1 28 Jun 11:14:46 11:18:01 14° 309° (NW) 11:21:01 437.405
ZACube-1 28 Jun 11:19:05 11:23:36 69° 288° (WNW) 11:28:08 437.345
ISS 28 Jun 11:19:34 11:22:42 44° 161° (SSE) 11:25:52 145.825
AAUSAT CUBESAT 2 28 Jun 11:20:43 11:24:22 29° 296° (WNW) 11:27:58 437.432
YUBILEINY 28 Jun 11:21:13 11:24:33 13° 65° (ENE) 11:27:53 435.215
Cosmos 2491 28 Jun 11:21:30 11:29:43 42° 64° (ENE) 11:37:51 435.465 / 435.565
Oscar 11 28 Jun 11:29:47 11:34:03 52° 291° (WNW) 11:38:17 145.826/435.025
DANDE 28 Jun 11:31:22 11:37:29 23° 306° (NW) 11:43:02 436.750
AIST 2 28 Jun 11:32:08 11:35:12 19° 17° (NNE) 11:38:16 435.215
DELFI C3 28 Jun 11:34:17 11:38:20 85° 284° (WNW) 11:42:19 145.870
FUNcube-1 28 Jun 11:36:56 11:41:18 51° 291° (WNW) 11:45:44 145.935
UWE-3 28 Jun 11:39:48 11:43:55 34° 295° (WNW) 11:48:05 435.000/436.395/437.385
Oscar 19 28 Jun 11:43:04 11:45:18 13° 47° (NE) 11:47:32 437.125/150
M-CUBED/EXP-1 PRIME 28 Jun 11:45:00 11:48:28 37° 299° (WNW) 11:52:10 437.505
O/OREOS (USA 219) 28 Jun 11:48:14 11:52:15 31° 48° (NE) 11:56:15 437.305
VELOX 1 28 Jun 11:48:36 11:49:03 10° 84° (E) 11:49:29 145.980
BEESAT 3 28 Jun 11:53:04 11:56:56 51° 233° (SW) 12:00:46 437.485
COMPASS 1 28 Jun 11:55:37 11:57:51 14° 305° (NW) 12:00:04 437.405
RS-15 28 Jun 11:56:18 12:06:18 37° 107° (ESE) 12:16:44 29.354- 29.394
TIGRISAT 28 Jun 12:01:28 12:04:44 21° 270° (W) 12:08:04 435.000
BUGSAT 1 28 Jun 12:03:02 12:06:55 50° 69° (ENE) 12:10:49 437.445
UNISAT 6 28 Jun 12:06:54 12:09:53 18° 271° (W) 12:12:56 437.425
PCSat 28 Jun 12:07:23 12:12:40 52° 240° (WSW) 12:17:53 145.827
50 SAT 28 Jun 12:18:39 12:21:20 19° 92° (E) 12:24:00 437.505
NANOSAT C BR1 28 Jun 12:20:44 12:24:50 53° 260° (W) 12:28:58 145.865
ESTCUBE 1 28 Jun 12:21:32 12:25:35 31° 95° (E) 12:29:36 437.505/2401.250
QB50P1 28 Jun 12:23:40 12:27:43 48° 260° (W) 12:31:49 145.935-145.965
AISAT 28 Jun 12:26:53 12:30:28 24° 93° (E) 12:34:03 437.250
POPSAT HIP 1 28 Jun 12:26:54 12:30:57 45° 261° (W) 12:35:01 437.405
UKube-1 28 Jun 12:28:51 12:31:31 16° 89° (E) 12:34:13 .
CUBEBUG 2 28 Jun 12:29:56 12:31:48 12° 308° (NW) 12:33:41 437.445
BEESAT 2 28 Jun 12:30:33 12:34:19 40° 236° (SW) 12:38:04 435.950
SPROUT 28 Jun 12:31:16 12:33:16 13° 86° (E) 12:35:15 437.525
HUMSAT D 28 Jun 12:34:33 12:38:43 47° 292° (WNW) 12:42:51 437.325/437.525
Cosmos 2504 28 Jun 12:38:11 12:41:00 12° 63° (ENE) 12:43:51 435.465 / 435.565
QB50P2 28 Jun 12:39:30 12:43:18 33° 264° (W) 12:47:10 145.880/145.840
AUBIESAT-1 28 Jun 12:41:08 12:43:32 16° 308° (NW) 12:46:00 437.475
DUCHIFAT 1 28 Jun 12:41:47 12:45:38 36° 263° (W) 12:49:31 145.980
POLYITAN 1 28 Jun 12:42:09 12:45:57 32° 264° (W) 12:49:47 437.675
DX 1 28 Jun 12:47:36 12:51:22 28° 95° (E) 12:55:06 434.975-435.025
HO-68 28 Jun 12:48:50 12:53:04 17° 323° (NW) 12:57:17 435.675
JAS-2 28 Jun 12:52:56 13:00:29 83° 70° (ENE) 13:07:15 435.910
AO-7 28 Jun 12:54:53 13:00:13 19° 30° (NNE) 13:05:33 29.400- 29.500
ISS 28 Jun 12:55:44 12:59:00 72° 180° (S) 13:02:16 145.825
ZACube-1 28 Jun 12:57:03 12:59:07 13° 307° (NW) 13:01:12 437.345
AIST 2 28 Jun 13:10:29 13:14:34 51° 40° (NE) 13:18:38 435.215
DELFI C3 28 Jun 13:10:40 13:12:34 13° 305° (NW) 13:14:26 145.870
YUBILEINY 28 Jun 13:10:49 13:19:08 52° 89° (E) 13:27:31 435.215
CUBEBUG 1 28 Jun 13:14:25 13:18:44 67° 103° (ESE) 13:23:02 437.445
FUNcube-1 28 Jun 13:16:19 13:16:36 10° 311° (NW) 13:16:54 145.935
Cosmos 2491 28 Jun 13:18:29 13:26:59 60° 269° (W) 13:35:29 435.465 / 435.565
Oscar 19 28 Jun 13:18:36 13:23:37 56° 68° (ENE) 13:28:40 437.125/150
VELOX 1 28 Jun 13:21:57 13:26:22 71° 104° (ESE) 13:30:45 145.980
O/OREOS (USA 219) 28 Jun 13:27:32 13:31:50 46° 249° (WSW) 13:36:07 437.305
Gurwin Techsat 1B 28 Jun 13:34:22 13:39:16 39° 63° (ENE) 13:44:12 435.225
BUGSAT 1 28 Jun 13:39:36 13:42:35 20° 268° (W) 13:45:36 437.445
ITAMSAT 1 28 Jun 13:42:11 13:46:06 22° 54° (NE) 13:50:02 435.822/435.867
TISAT 1 28 Jun 13:51:18 13:54:34 21° 92° (E) 13:57:50 437.305
50 SAT 28 Jun 13:51:41 13:55:17 46° 291° (WNW) 13:58:49 437.505
ESTCUBE 1 28 Jun 13:58:17 14:02:29 39° 295° (WNW) 14:06:39 437.505/2401.250
AISAT 28 Jun 14:02:57 14:07:12 49° 292° (WNW) 14:11:26 437.250
UKube-1 28 Jun 14:03:47 14:08:06 73° 289° (WNW) 14:12:24 .
SPROUT 28 Jun 14:05:33 14:09:52 89° 285° (WNW) 14:14:10 437.525
RS-15 28 Jun 14:05:53 14:17:33 87° 312° (NW) 14:29:53 29.354- 29.394
SWISSCUBE 28 Jun 14:15:41 14:16:35 10° 83° (E) 14:17:29 437.505
DX 1 28 Jun 14:23:37 14:27:42 41° 294° (WNW) 14:31:46 434.975-435.025
Cosmos 2504 28 Jun 14:24:14 14:32:03 49° 88° (E) 14:40:21 435.465 / 435.565
ISS 28 Jun 14:32:09 14:35:16 42° 200° (SSW) 14:38:23 145.825
BEESAT 28 Jun 14:39:19 14:42:15 16° 87° (E) 14:45:11 436.000
JAS-2 28 Jun 14:40:06 14:46:08 26° 271° (W) 14:51:46 435.910
ITUPSAT 1 28 Jun 14:40:16 14:43:13 16° 87° (E) 14:46:10 437.325
AO-7 28 Jun 14:43:16 14:51:07 48° 55° (NE) 14:59:01 29.400- 29.500
AIST 2 28 Jun 14:49:15 14:52:53 30° 240° (WSW) 14:56:32 435.215
CUBEBUG 1 28 Jun 14:51:31 14:54:37 20° 302° (WNW) 14:57:43 437.445
Oscar 19 28 Jun 14:58:57 15:03:17 27° 267° (W) 15:07:37 437.125/150
VELOX 1 28 Jun 14:59:16 15:02:23 19° 303° (WNW) 15:05:30 145.980
YUBILEINY 28 Jun 15:07:43 15:16:05 49° 293° (WNW) 15:24:34 435.215
Gurwin Techsat 1B 28 Jun 15:14:14 15:19:14 41° 263° (W) 15:24:17 435.225
Cosmos 2491 28 Jun 15:17:26 15:21:55 15° 292° (WNW) 15:26:25 435.465 / 435.565
ITAMSAT 1 28 Jun 15:19:48 15:25:02 81° 255° (WSW) 15:30:20 435.822/435.867
TISAT 1 28 Jun 15:26:26 15:30:31 51° 291° (WNW) 15:34:36 437.305
SO-50 28 Jun 15:38:53 15:40:31 12° 108° (ESE) 15:42:08 436.795
UKube-1 28 Jun 15:41:26 15:43:26 13° 308° (NW) 15:45:24 .
SPROUT 28 Jun 15:42:47 15:45:14 15° 305° (NW) 15:47:39 437.525
SWISSCUBE 28 Jun 15:50:33 15:55:21 66° 103° (ESE) 16:00:06 437.505
HORYU 2 28 Jun 15:59:03 16:02:30 22° 58° (ENE) 16:05:57 437.375
ISS 28 Jun 16:09:32 16:11:07 13° 219° (SW) 16:12:41 145.825
BEESAT 28 Jun 16:15:52 16:20:43 85° 286° (WNW) 16:25:31 436.000
ITUPSAT 1 28 Jun 16:16:52 16:21:44 85° 289° (WNW) 16:26:33 437.325
Cosmos 2504 28 Jun 16:17:24 16:25:28 52° 292° (WNW) 16:34:03 435.465 / 435.565
RS-15 28 Jun 16:20:06 16:31:37 51° 344° (NNW) 16:43:36 29.354- 29.394
CUTE-I 28 Jun 16:24:30 16:26:27 12° 44° (NE) 16:28:23 437.470
AO-7 28 Jun 16:35:39 16:43:49 57° 257° (WSW) 16:52:05 29.400- 29.500
NOAA 15 28 Jun 16:50:17 16:54:12 21° 54° (NE) 16:58:06 137.62
MOZHAYETS 4 28 Jun 16:55:13 16:59:33 37° 96° (E) 17:03:51
ITAMSAT 1 28 Jun 17:02:31 17:05:22 15° 275° (W) 17:08:15 435.822/435.867
KKS-1 28 Jun 17:05:02 17:09:20 46° 99° (E) 17:13:37 437.445
YUBILEINY 28 Jun 17:10:45 17:15:41 16° 321° (NW) 17:20:41 435.215
LilacSat-2 28 Jun 17:12:44 17:14:36 13° 56° (ENE) 17:16:28 437.200
SO-50 28 Jun 17:15:17 17:20:05 59° 128° (SE) 17:24:53 436.795
Cosmos 2499 28 Jun 17:16:33 17:17:37 10° 61° (ENE) 17:18:43 435.465 / 435.565
AIST 1 28 Jun 17:16:41 17:20:24 28° 89° (E) 17:24:06
GONETS M04 28 Jun 17:16:53 17:21:42 16° 69° (ENE) 17:26:32
NOAA 18 28 Jun 17:21:01 17:25:43 30° 57° (ENE) 17:30:27 137.9125
Cubesat XI-IV 28 Jun 17:26:37 17:31:09 29° 58° (ENE) 17:35:43 437.490
SWISSCUBE 28 Jun 17:29:01 17:32:46 23° 303° (WNW) 17:36:30 437.505
HORYU 2 28 Jun 17:34:20 17:38:43 60° 258° (WSW) 17:43:09 437.375
STARS 28 Jun 17:37:09 17:41:27 50° 100° (E) 17:45:45 437.465
DOVE 4 28 Jun 17:53:39 17:55:34 13° 54° (NE) 17:57:27 437.250
BEESAT 28 Jun 17:54:48 17:57:50 17° 307° (NW) 18:00:52 436.000
BRITE-PL 28 Jun 17:54:57 17:59:39 48° 69° (ENE) 18:04:02 437.365/2234.400
ITUPSAT 1 28 Jun 17:55:51 17:58:54 17° 307° (NW) 18:01:58 437.325
CUTE-I 28 Jun 18:00:11 18:05:18 48° 65° (ENE) 18:10:29 437.470
HO-68 28 Jun 18:02:23 18:07:18 20° 41° (NE) 18:12:12 435.675
CUSAT 1 28 Jun 18:15:30 18:19:15 28° 62° (ENE) 18:22:14 437.405
Cosmos 2504 28 Jun 18:16:12 18:21:27 17° 319° (NW) 18:26:52 435.465 / 435.565
CUBESAT XI-V 28 Jun 18:22:53 18:27:11 36° 96° (E) 18:31:27 437.345
NOAA 15 28 Jun 18:28:06 18:33:25 84° 252° (WSW) 18:38:44 137.62
GOMX 1 28 Jun 18:28:39 18:32:57 46° 69° (ENE) 18:37:03 467.674
MOZHAYETS 4 28 Jun 18:32:28 18:36:43 35° 296° (WNW) 18:40:54
AO-7 28 Jun 18:34:36 18:38:36 14° 280° (W) 18:42:38 29.400- 29.500
RS-15 28 Jun 18:35:11 18:47:00 52° 17° (NNE) 18:59:02 29.354- 29.394
DANDE 28 Jun 18:37:55 18:42:52 29° 58° (ENE) 18:46:44 436.750
KKS-1 28 Jun 18:41:58 18:45:45 28° 299° (WNW) 18:49:31 437.445
LilacSat-2 28 Jun 18:44:33 18:48:20 86° 256° (WSW) 18:52:12 437.200
CINEMA 3 28 Jun 18:48:26 18:50:37 14° 54° (NE) 18:52:49 145.822/145.860
AIST 1 28 Jun 18:53:54 18:57:54 37° 289° (WNW) 19:01:55
SO-50 28 Jun 18:56:16 19:00:51 38° 329° (NNW) 19:05:22 436.795
Cosmos 2499 28 Jun 19:00:25 19:08:13 43° 85° (E) 19:16:22 435.465 / 435.565
NOAA 18 28 Jun 19:00:43 19:06:07 59° 258° (WSW) 19:11:34 137.9125
Cubesat XI-IV 28 Jun 19:05:39 19:10:56 60° 258° (WSW) 19:16:17 437.490
GONETS M04 28 Jun 19:08:12 19:16:43 64° 93° (E) 19:25:17
STARS 28 Jun 19:13:59 19:17:36 25° 300° (WNW) 19:21:12 437.465
DOVE 4 28 Jun 19:28:24 19:32:40 81° 72° (ENE) 19:36:50 437.250
M-CUBED/EXP-1 PRIME 28 Jun 19:30:56 19:32:20 12° 49° (NE) 19:33:46 437.505
UWE-3 28 Jun 19:33:37 19:34:35 11° 50° (NE) 19:35:33 435.000/436.395/437.385
BRITE-PL 28 Jun 19:34:12 19:38:21 27° 266° (W) 19:42:17 437.365/2234.400
CANX-2 28 Jun 19:38:32 19:42:28 36° 66° (ENE) 19:46:26 2200.000
CUTE-I 28 Jun 19:40:45 19:45:34 33° 265° (W) 19:50:25 437.470
COMPASS 1 28 Jun 19:40:47 19:43:56 21° 60° (ENE) 19:47:05 437.405
STRAND 1 28 Jun 19:46:01 19:49:59 22° 90° (E) 19:53:55 437.568
HO-68 28 Jun 19:46:45 19:53:47 63° 64° (ENE) 20:00:53 435.675
CUSAT 1 28 Jun 19:57:50 20:01:12 25° 273° (W) 20:03:58 437.405
CUTE 1.7 + AOD 2 28 Jun 19:58:17 20:02:24 48° 69° (ENE) 20:06:33 437.475
CUBESAT XI-V 28 Jun 20:00:22 20:04:35 35° 296° (WNW) 20:08:46 437.345
SEEDS 28 Jun 20:02:10 20:06:09 39° 67° (ENE) 20:10:09 437.485
GOMX 1 28 Jun 20:07:35 20:11:16 24° 267° (W) 20:14:50 467.674
NOAA 15 28 Jun 20:10:56 20:14:01 16° 274° (W) 20:17:08 137.62
CUBEBUG 2 28 Jun 20:19:30 20:23:13 31° 64° (ENE) 20:27:03 437.445
DANDE 28 Jun 20:20:46 20:26:05 46° 268° (W) 20:30:02 436.750
CINEMA 3 28 Jun 20:23:00 20:27:09 88° 76° (ENE) 20:31:23 145.822/145.860
LilacSat-2 28 Jun 20:23:16 20:23:18 10° 275° (W) 20:23:20 437.200
AUBIESAT-1 28 Jun 20:23:58 20:26:56 31° 59° (ENE) 20:29:58 437.475
SO-50 28 Jun 20:38:50 20:42:32 21° 352° (N) 20:46:11 436.795
AAUSAT CUBESAT 2 28 Jun 20:40:41 20:44:47 55° 70° (ENE) 20:48:56 437.432
ZACube-1 28 Jun 20:45:11 20:48:50 28° 63° (ENE) 20:52:34 437.345
NOAA 18 28 Jun 20:46:52 20:47:59 11° 278° (W) 20:49:07 137.9125
RS-15 28 Jun 20:48:40 21:01:01 89° 40° (NE) 21:13:25 29.354- 29.394
Cubesat XI-IV 28 Jun 20:51:05 20:52:11 11° 279° (W) 20:53:17 437.490
DELFI C3 28 Jun 20:52:26 20:55:13 18° 59° (ENE) 20:58:01 145.870
Cosmos 2499 28 Jun 20:52:46 21:01:08 59° 289° (WNW) 21:09:56 435.465 / 435.565
Oscar 11 28 Jun 20:54:23 20:58:22 36° 65° (ENE) 21:02:22 145.826/435.025
FUNcube-1 28 Jun 21:02:18 21:06:13 37° 66° (ENE) 21:10:14 145.935
M-CUBED/EXP-1 PRIME 28 Jun 21:03:10 21:06:25 81° 249° (WSW) 21:09:46 437.505
UWE-3 28 Jun 21:05:59 21:10:08 59° 71° (ENE) 21:14:26 435.000/436.395/437.385
GONETS M04 28 Jun 21:06:03 21:14:06 40° 297° (WNW) 21:22:11
DOVE 4 28 Jun 21:08:50 21:10:58 13° 273° (W) 21:13:04 437.250
AO-85 28 Jun 21:09:26 21:11:32 12° 108° (ESE) 21:13:35 145.980
CANX-2 28 Jun 21:14:32 21:18:22 31° 265° (W) 21:22:15 2200.000
COMPASS 1 28 Jun 21:14:58 21:19:09 59° 259° (W) 21:23:21 437.405
YUBILEINY 28 Jun 21:17:09 21:20:40 13° 32° (NNE) 21:24:12 435.215
PRISM 28 Jun 21:21:38 21:25:02 24° 94° (E) 21:28:24 437.425
STRAND 1 28 Jun 21:24:31 21:29:41 69° 290° (WNW) 21:34:48 437.568
CUTE 1.7 + AOD 2 28 Jun 21:35:01 21:38:30 24° 268° (W) 21:42:00 437.475
HO-68 28 Jun 21:35:29 21:41:57 35° 266° (W) 21:48:27 435.675
SEEDS 28 Jun 21:38:17 21:41:58 28° 266° (W) 21:45:41 437.485
ESTCUBE 1 28 Jun 21:53:30 21:55:04 12° 50° (NE) 21:56:38 437.505/2401.250
CUBEBUG 2 28 Jun 21:55:57 21:59:49 35° 264° (W) 22:03:49 437.445
HUMSAT D 28 Jun 21:56:07 21:59:58 36° 66° (ENE) 22:03:52 437.325/437.525
AUBIESAT-1 28 Jun 21:58:47 22:01:32 24° 259° (W) 22:04:20 437.475
CINEMA 3 28 Jun 22:03:19 22:05:00 12° 275° (W) 22:06:42 145.822/145.860
Cosmos 2504 28 Jun 22:17:05 22:19:13 11° 27° (NNE) 22:21:20 435.465 / 435.565
AAUSAT CUBESAT 2 28 Jun 22:17:29 22:20:37 20° 270° (W) 22:23:46 437.432
SO-50 28 Jun 22:20:33 22:24:30 24° 17° (NNE) 22:28:21 436.795
ZACube-1 28 Jun 22:20:59 22:24:59 41° 263° (W) 22:29:08 437.345
DELFI C3 28 Jun 22:25:41 22:29:41 64° 258° (WSW) 22:33:44 145.870
Oscar 11 28 Jun 22:30:38 22:34:32 32° 265° (W) 22:38:30 145.826/435.025
FUNcube-1 28 Jun 22:38:48 22:42:33 30° 266° (W) 22:46:24 145.935
CUBEBUG 1 28 Jun 22:41:28 22:44:30 19° 57° (ENE) 22:47:33 437.445
UWE-3 28 Jun 22:43:59 22:47:02 19° 271° (W) 22:50:09 435.000/436.395/437.385
AO-85 28 Jun 22:45:51 22:51:07 57° 127° (SE) 22:56:10 145.980
VELOX 1 28 Jun 22:49:56 22:53:15 21° 58° (ENE) 22:56:35 145.980
Cosmos 2499 28 Jun 22:50:37 22:56:34 20° 316° (NW) 23:02:39 435.465 / 435.565
ANTELSAT 28 Jun 22:54:02 22:57:38 22° 91° (E) 23:01:16 437.575/2403.000
PRISM 28 Jun 22:56:38 23:00:32 42° 293° (WNW) 23:04:22 437.425
RS-15 28 Jun 23:01:43 23:12:19 36° 253° (WSW) 23:22:54 29.354- 29.394
50 SAT 28 Jun 23:02:10 23:05:08 23° 63° (ENE) 23:08:08 437.505
STRAND 1 28 Jun 23:05:03 23:08:00 16° 310° (NW) 23:10:58 437.568
GONETS M04 28 Jun 23:10:23 23:14:10 13° 326° (NW) 23:17:56
YUBILEINY 28 Jun 23:12:48 23:20:54 38° 61° (ENE) 23:28:58 435.215
ESTCUBE 1 28 Jun 23:26:32 23:31:00 59° 70° (ENE) 23:35:30 437.505/2401.250
UKube-1 28 Jun 23:28:38 23:32:23 30° 62° (ENE) 23:36:09 .
AISAT 28 Jun 23:29:42 23:33:54 45° 67° (ENE) 23:38:06 437.250
SPROUT 28 Jun 23:30:06 23:33:23 22° 60° (ENE) 23:36:42 437.525
HUMSAT D 28 Jun 23:31:54 23:35:39 31° 266° (W) 23:39:27 437.325/437.525
TIGRISAT 28 Jun 23:45:01 23:49:35 55° 101° (E) 23:54:11 435.000
DX 1 28 Jun 23:48:34 23:52:47 52° 69° (ENE) 23:57:01 434.975-435.025
UNISAT 6 28 Jun 23:50:14 23:54:52 65° 102° (ESE) 23:59:31 437.425
NANOSAT C BR1 28 Jun 23:59:47 00:02:33 17° 89° (E) 00:05:19 145.865
SO-50 29 Jun 00:01:07 00:05:51 61° 40° (NE) 00:10:26 436.795
QB50P1 29 Jun 00:02:47 00:05:48 19° 90° (E) 00:08:49 145.935-145.965
POPSAT HIP 1 29 Jun 00:05:58 00:09:06 20° 91° (E) 00:12:13 437.405
Cosmos 2504 29 Jun 00:08:46 00:16:26 31° 56° (NE) 00:23:56 435.465 / 435.565
CUBEBUG 1 29 Jun 00:16:00 00:20:22 71° 257° (WSW) 00:24:43 437.445
QB50P2 29 Jun 00:18:03 00:21:41 26° 94° (E) 00:25:18 145.880/145.840
DUCHIFAT 1 29 Jun 00:19:43 00:23:10 24° 93° (E) 00:26:37 145.980
POLYITAN 1 29 Jun 00:20:39 00:24:19 27° 94° (E) 00:27:59 437.675
VELOX 1 29 Jun 00:25:00 00:29:22 63° 257° (WSW) 00:33:46 145.980
AO-85 29 Jun 00:26:49 00:31:52 42° 327° (NNW) 00:36:38 145.980
ANTELSAT 29 Jun 00:30:09 00:34:43 60° 290° (WNW) 00:39:20 437.575/2403.000
Cosmos 2491 29 Jun 00:31:09 00:38:53 37° 83° (E) 00:46:36 435.465 / 435.565
50 SAT 29 Jun 00:35:07 00:38:38 40° 261° (W) 00:42:12 437.505
TISAT 1 29 Jun 00:48:27 00:52:14 35° 65° (ENE) 00:56:04 437.305
UKube-1 29 Jun 01:04:17 01:08:21 39° 262° (W) 01:12:25 .
ESTCUBE 1 29 Jun 01:04:44 01:08:11 21° 269° (W) 01:11:40 437.505/2401.250
SPROUT 29 Jun 01:04:53 01:09:03 54° 259° (W) 01:13:15 437.525
AISAT 29 Jun 01:06:52 01:10:34 26° 266° (W) 01:14:18 437.250
YUBILEINY 29 Jun 01:09:40 01:18:25 69° 266° (W) 01:27:09 435.215
BUGSAT 1 29 Jun 01:13:53 01:17:43 37° 98° (E) 01:21:32 437.445
TIGRISAT 29 Jun 01:22:13 01:26:00 25° 299° (WNW) 01:29:47 435.000
Oscar 19 29 Jun 01:25:49 01:27:48 12° 83° (E) 01:29:46 437.125/150
DX 1 29 Jun 01:25:52 01:29:16 22° 267° (W) 01:32:43 434.975-435.025
SWISSCUBE 29 Jun 01:26:15 01:30:12 26° 59° (ENE) 01:34:10 437.505
UNISAT 6 29 Jun 01:27:39 01:31:12 22° 301° (WNW) 01:34:48 437.425
NANOSAT C BR1 29 Jun 01:34:31 01:38:45 68° 288° (WNW) 01:42:58 145.865
QB50P1 29 Jun 01:37:46 01:41:59 61° 289° (WNW) 01:46:11 145.935-145.965
POPSAT HIP 1 29 Jun 01:41:03 01:45:14 58° 290° (WNW) 01:49:25 437.405
JAS-2 29 Jun 01:41:55 01:47:23 40° 95° (E) 01:52:22 435.910
SO-50 29 Jun 01:42:02 01:46:04 29° 241° (WSW) 01:49:59 436.795
BEESAT 29 Jun 01:50:57 01:55:18 36° 63° (ENE) 01:59:41 436.000
ITUPSAT 1 29 Jun 01:52:15 01:56:38 36° 63° (ENE) 02:01:02 437.325
QB50P2 29 Jun 01:53:37 01:57:39 42° 293° (WNW) 02:01:41 145.880/145.840
DUCHIFAT 1 29 Jun 01:55:02 01:59:06 46° 292° (WNW) 02:03:10 145.980
POLYITAN 1 29 Jun 01:56:14 02:00:16 41° 293° (WNW) 02:04:18 437.675
Cosmos 2504 29 Jun 02:02:03 02:11:03 87° 262° (W) 02:19:44 435.465 / 435.565
ANTELSAT 29 Jun 02:08:48 02:10:34 12° 309° (NW) 02:12:21 437.575/2403.000
AO-85 29 Jun 02:09:31 02:13:31 22° 350° (N) 02:17:19 145.980
TISAT 1 29 Jun 02:24:14 02:27:57 31° 264° (W) 02:31:42 437.305
Cosmos 2491 29 Jun 02:26:33 02:35:16 66° 287° (WNW) 02:44:00 435.465 / 435.565
MOZHAYETS 4 29 Jun 02:28:37 02:30:52 14° 52° (NE) 02:33:07
KKS-1 29 Jun 02:34:34 02:37:11 16° 54° (NE) 02:39:49 437.445
BUGSAT 1 29 Jun 02:49:29 02:53:01 29° 296° (WNW) 02:56:33 437.445
